Overview Statistics Trail Chart Weather Telemetry Raw packets
 

This is the latest recevied weather packets stored in our database for station/object TB1YZC-13. If no packets are shown the sender has not sent any weather packets the latest 10 day(s).

<< 35 36 37 38 39 40 >>
Time Temp. Humidity Pressure Rain* Wind** Luminosity Snow
1788115376 21.67° C 91% 1018.9 hPa - - - -
1788114773 21.67° C 91% 1018.9 hPa - - - -
1788114170 22.22° C 89% 1018.8 hPa - - - -
1788113567 22.22° C 88% 1018.7 hPa - - - -
1788112964 22.22° C 88% 1018.6 hPa - - - -
1788112361 22.22° C 87% 1018.6 hPa - - - -
1788111758 22.78° C 85% 1018.4 hPa - - - -
1788111154 22.78° C 83% 1018.2 hPa - - - -
1788110552 23.33° C 82% 1018 hPa - - - -
1788109948 23.89° C 79% 1017.9 hPa - - - -
1788109345 23.89° C 80% 1017.9 hPa - - - -
1788108743 24.44° C 78% 1017.8 hPa - - - -
1788108139 23.89° C 79% 1017.8 hPa - - - -
1788107535 23.89° C 79% 1017.8 hPa - - - -
1788106932 23.89° C 78% 1017.9 hPa - - - -
1788106329 24.44° C 76% 1017.8 hPa - - - -
1788105726 24.44° C 76% 1017.8 hPa - - - -
1788105123 25° C 73% 1017.8 hPa - - - -
1788104520 25° C 72% 1017.7 hPa - - - -
1788103916 25° C 71% 1017.7 hPa - - - -
1788103313 25.56° C 69% 1017.7 hPa - - - -
1788102710 25.56° C 68% 1017.8 hPa - - - -
1788102107 26.11° C 66% 1017.7 hPa - - - -
1788101503 26.11° C 65% 1017.7 hPa - - - -
1788100901 26.11° C 63% 1017.6 hPa - - - -

* Rain since midnight (hover to see other rain measurements)
** Current wind speed in m/s (hover to see current wind gust speed)